Regional Weather Roundup
Issued by NWS Charleston, WV

Home | Current Version | Previous Version | Graphics & Text | Print | Product List | Glossary On
Versions: 1 2 3 4 5 6 7 8 9 10 11 12 13 14 15 16 17 18 19 20 21 22 23 24 25 26 27 28 29 30 31 32 33 34 35 36 37 38 39 40 41 42 43 44 45 46 47 48 49 50
000
ASUS41 KRLX 080810
RWRRLX
West Virginia Regional Weather Roundup
National Weather Service Charleston WV
300 AM EST MON FEB 08 2016

Note: "fair" indicates few or no clouds below 12,000 feet with no
significant weather and/or obstructions to visibility.

WVZ003-080900-
Northern Panhandle of West Virginia

CITY           SKY/WX    TMP DP  RH WIND       PRES   REMARKS
WHEELING         N/A     38  22  52 SE8       29.73F
$$

WVZ009-080900-
Northwest West Virginia

CITY           SKY/WX    TMP DP  RH WIND       PRES   REMARKS
PARKERSBURG      N/A     37  24  59 SE5       29.76F
$$

WVZ006-080900-
Western West Virginia

CITY           SKY/WX    TMP DP  RH WIND       PRES   REMARKS
HUNTINGTON     MOCLDY    38  23  55 S6        29.74F
$$

WVZ015-080900-
West Central West Virginia

CITY           SKY/WX    TMP DP  RH WIND       PRES   REMARKS
CHARLESTON     MOCLDY    31  25  78 CALM      29.76F
$$

WVZ022-031-080900-
North Central West Virginia

CITY           SKY/WX    TMP DP  RH WIND       PRES   REMARKS
CLARKSBURG       N/A     27  22  81 CALM      29.76F
MORGANTOWN       N/A     30  21  69 CALM      29.77F
$$

WVZ025-035-042-045-080900-
Southern West Virginia

CITY           SKY/WX    TMP DP  RH WIND       PRES   REMARKS
BECKLEY          N/A     33  21  61 SW6       29.76F
LOGAN          MOCLDY    37  23  56 S5        29.76F
BLUEFIELD        N/A     30  20  66 W6        29.76F
LEWISBURG        N/A     27  22  84 CALM      29.77F
$$

WVZ047-080900-
Northern Mountains of West Virginia

CITY           SKY/WX    TMP DP  RH WIND       PRES   REMARKS
ELKINS           N/A     20  17  88 CALM      29.78F
$$

WVZ052-080900-
Eastern Panhandle of West Virginia

CITY           SKY/WX    TMP DP  RH WIND       PRES   REMARKS
MARTINSBURG      N/A     22  19  89 CALM      29.80F
PETERSBURG       N/A     25  24  96 CALM      29.82F
$$



USA.gov is the U.S. government's official web portal to all federal, state and local government web resources and services.